Shungnak AP, Shungnak, AK, AK

12:09 AM AKST on November 18, 2019 (GMT -0900)
Shungnak AP, Shungnak, AK

Weather History for PAGH - September, 2019

Change the Weather History Date:

Wednesday, September 11, 2019

  Actual Average (WUND) Record (WUND)
Temperature  
Mean Temperature 52 °F -  
Max Temperature 55 °F - - (-1)
Min Temperature 48 °F - - (-1)
Degree Days  
Heating Degree Days 14    
Growing Degree Days 2 (Base 50)    
Moisture  
Dew Point 45 °F    
Average Humidity 81    
Maximum Humidity 93    
Minimum Humidity 64    
Precipitation  
Precipitation 0.00 in - - ()
Sea Level Pressure  
Sea Level Pressure 29.75 in    
Wind  
Wind Speed 11 mph (ESE)    
Max Wind Speed 17 mph    
Max Gust Speed 23 mph    
Visibility 10 miles    
Events Rain    
Averages and records for this station are not official NWS values.
T = Trace of Precipitation, MM = Missing Value Source: NWS Daily Summary

Daily Weather History Graph

Daily Weather History Graph

Search for Another Location

Airport or City:

Astronomy

Sep. 11, 2019 Rise Set
Actual Time 7:34 AM AKDT 9:14 PM AKDT
Civil Twilight 6:37 AM AKDT 10:10 PM AKDT
Nautical Twilight 5:22 AM AKDT 11:24 PM AKDT
Astronomical Twilight 3:14 AM AKDT 1:22 AM AKDT
Moon 9:52 PM AKDT (9/11) 3:19 AM AKDT (9/11)
Length of Visible Light 15h 32m
Length of Day
13h 40m
Waxing Gibbous, 95% of the Moon is Illuminated
Sep 11
Waxing Gibbous
Sep 13
Full
Sep 21
Last Quarter
Sep 28
New
Oct 5
First Quarter

Hourly Weather History & Observations

Time (AKDT) Temp. Dew Point Humidity Pressure Visibility Wind Dir Wind Speed Gust Speed Precip Events Conditions
1:56 AM 50.0 °F 46.0 °F 86% 29.81 in 10.0 mi East 9.2 mph - N/A   Overcast
2:56 AM 48.9 °F 46.0 °F 90% 29.81 in 10.0 mi East 9.2 mph - N/A Rain Light Rain
3:56 AM 48.9 °F 46.9 °F 93% 29.82 in 10.0 mi ESE 9.2 mph - N/A   Overcast
4:56 AM 48.0 °F 46.0 °F 93% 29.81 in 10.0 mi East 9.2 mph - N/A   Overcast
5:56 AM 48.0 °F 46.0 °F 93% 29.81 in 10.0 mi ESE 9.2 mph - N/A   Overcast
6:56 AM 48.0 °F 46.0 °F 93% 29.81 in 10.0 mi ESE 11.5 mph - N/A   Overcast
7:56 AM 48.0 °F 46.0 °F 93% 29.81 in 10.0 mi ESE 8.1 mph - N/A   Overcast
8:56 AM 48.0 °F 46.0 °F 93% 29.81 in 10.0 mi ESE 12.7 mph - N/A   Mostly Cloudy
9:56 AM 48.9 °F 46.0 °F 90% 29.80 in 10.0 mi East 11.5 mph - N/A   Overcast
10:56 AM 51.1 °F 46.0 °F 83% 29.80 in 10.0 mi ESE 15.0 mph - N/A   Scattered Clouds
11:56 AM 52.0 °F 46.0 °F 80% 29.79 in 10.0 mi ESE 15.0 mph - N/A   Overcast
12:56 PM 53.1 °F 46.9 °F 80% 29.79 in 10.0 mi ESE 13.8 mph - N/A   Overcast
1:56 PM 54.0 °F 46.0 °F 75% 29.78 in 10.0 mi ESE 9.2 mph - N/A   Overcast
2:56 PM 55.0 °F 45.0 °F 69% 29.76 in 10.0 mi SE 9.2 mph - N/A   Overcast
3:56 PM 55.9 °F 45.0 °F 67% 29.74 in 10.0 mi ESE 17.3 mph 21.9 mph N/A   Scattered Clouds
4:56 PM 55.0 °F 44.1 °F 67% 29.72 in 10.0 mi East 12.7 mph 19.6 mph N/A   Overcast
6:56 PM 55.0 °F 44.1 °F 67% 29.68 in 10.0 mi ESE 15.0 mph - N/A   Scattered Clouds
7:56 PM 55.0 °F 43.0 °F 64% 29.66 in 10.0 mi East 13.8 mph 23.0 mph N/A   Clear
8:56 PM 53.1 °F 44.1 °F 71% 29.65 in 10.0 mi ESE 11.5 mph - N/A   Mostly Cloudy
9:56 PM 52.0 °F 44.1 °F 74% 29.65 in 10.0 mi East 15.0 mph - N/A   Mostly Cloudy
10:56 PM 51.1 °F 44.1 °F 77% 29.64 in 10.0 mi ESE 13.8 mph - N/A   Partly Cloudy
11:56 PM 50.0 °F 44.1 °F 80% 29.63 in 10.0 mi East 12.7 mph - N/A   Clear